Hourly Data Report for October 04, 2017

All times are specified in Local Standard Time (LST). Add 1 hour to adjust for Daylight Saving Time where and when it is observed.

PENTICTON A
BRITISH COLUMBIA

49°27'45.000" N
119°36'08.000" W
344.40 m
1126146
71889
YYF

Download Data

Hourly Data (October 2017)
Hourly Data Report for October 4, 2017
Temp Definition
°C
Dew Point Temp Definition
°C
Rel Hum Definition
%
Wind Dir Definition
10's deg

Wind Spd Definition
km/h
Visibility Definition
km
Stn Press Definition
kPa
Hmdx Definition


Wind Chill Definition


Weather Definition


TIME
00:00 Legend Double Dagger 4.5 -2.8 59 1 16 24.1 98.53     LegendNANA
01:00 Legend Double Dagger 3.7 -3.1 61 36 15 24.1 98.57     Clear
02:00 Legend Double Dagger 3.8 -2.8 62 36 15 24.1 98.58     LegendNANA
03:00 Legend Double Dagger 2.2 -3.7 65 36 13 24.1 98.57     LegendNANA
04:00 Legend Double Dagger 3.2 -2.9 64 35 18 24.1 98.56     Clear
05:00 Legend Double Dagger 1.8 -2.8 71 35 14 24.1 98.51     LegendNANA
06:00 Legend Double Dagger 1.4 -3.5 70 36 18 24.1 98.53     LegendNANA
07:00 Legend Double Dagger 3.2 -3.4 62 1 14 24.1 98.52     Mostly Cloudy
08:00 Legend Double Dagger 8.7 0.7 57 35 10 24.1 98.51     LegendNANA
09:00 Legend Double Dagger 10.0 1.4 55 2 16 24.1 98.43     LegendNANA
10:00 Legend Double Dagger 9.9 1.6 56 36 14 24.1 98.39     Mostly Cloudy
11:00 Legend Double Dagger 12.9 0.8 44 34 16 24.1 98.31     LegendNANA
12:00 Legend Double Dagger 15.4 LegendMM LegendMM 31 18 24.1 99.23     LegendNANA
13:00 Legend Double Dagger 15.4 -0.4 34 35 16 24.1 98.16     Mostly Cloudy
14:00 Legend Double Dagger 14.8 1.3 40 35 25 24.1 98.12     LegendNANA
15:00 Legend Double Dagger 15.8 1.3 37 35 19 24.1 98.08     LegendNANA
16:00 Legend Double Dagger 14.7 1.8 41 2 12 24.1 98.07     Mostly Cloudy
17:00 Legend Double Dagger 12.4 2.2 49 34 8 24.1 98.07     LegendNANA
18:00 Legend Double Dagger 8.2 0.5 58 35 10 24.1 98.10     LegendNANA
19:00 Legend Double Dagger 7.3 -0.1 59 36 8 24.1 98.13     Mostly Cloudy
20:00 Legend Double Dagger 6.9 -0.8 58 1 11 24.1 98.16     LegendNANA
21:00 Legend Double Dagger 6.6 -1.4 57 35 15 24.1 98.18     LegendNANA
22:00 Legend Double Dagger 5.6 -2.0 58 35 12 24.1 98.19     Mostly Cloudy
23:00 Legend Double Dagger 5.4 -2.4 57 34 17 24.1 98.18     LegendNANA

Notes on Data Quality.

Legend

  • E = Estimated
  • M = Missing
  • NA = Not Available
  • ‡ = Partner data that is not subject to review by the National Climate Archives
Date modified: